Notices

What's New in latest Release from April 7th, 2021:

- Updated Glossary, including Speed of Maximum Gust, and Total Hourly Precipitation

- Updated national and regional climate services offices contacts and prices information

- Addition of station inventory lists for 1981-2010, 1971-2000, and 1961-1990 Normals.

If you haven't already, please take our survey and provide feedback about our website: https://eccc.sondage-survey.ca/f/LanguageSelection.aspx?s=442ca660-fcf1-47c0-95a9-59707d6fd709

Hourly Data Report for December 25, 2020

MUSKOKA
ONTARIO
Current Station Operator: NAVCAN

44°58'29.000" N
79°18'12.000" W
281.90 m
6115529
71532
YQA

Download Data

Hourly Data (December 2020)
Hourly Data Report for December 25, 2020
TIME
LST
Temp Definition
°C
Dew Point Definition
°C
Rel Hum Definition
%
Precip. Amount Definition
mm

Wind Dir Definition
10's deg

Wind Spd Definition
km/h
Visibility Definition
km
Stn Press Definition
kPa
Hmdx Definition


Wind Chill Definition


Weather Definition


00:00 -2.3 -3.6 91 0.0 34 17 3.2 96.85   -8 Snow
01:00 -2.6 -3.6 93 183.1 34 15 1.6 96.78   -8 Snow
02:00 -2.8 -3.6 94 342.1 34 17 1.6 96.66   -8 Snow
03:00 -2.8 -3.6 94 352.6 34 18 1.6 96.49   -8 Snow
04:00 -2.9 -3.7 94 337.6 34 22 1.6 96.28   -9 Snow
05:00 -3.0 -4.0 93 343.9 31 24 3.2 96.29   -10 Snow
06:00 -3.3 -4.4 92 393.7 32 21 4.8 96.24   -10 Snow
07:00 -3.0 -4.1 92 LegendMM 33 21 6.4 96.17   -9 Snow
08:00 -3.0 -4.0 93 284.5 32 17 2.0 96.23   -9 Snow
09:00 -3.7 -4.7 93 102.4 31 18 1.0 96.24   -10 Snow
10:00 -4.9 -6.4 89 LegendMM 33 21 1.6 96.30   -12 Snow
11:00 -5.7 -8.0 84 LegendMM 33 26 16.1 96.30   -13 Snow
12:00 -6.2 -7.7 89 LegendMM 31 15 2.8 96.26   -12 Freezing Rain,Fog
13:00 -6.9 -8.3 90 LegendMM 31 17 3.2 96.23   -13 Freezing Rain,Fog
14:00 -7.1 -8.9 87 LegendMM 31 18 9.7 96.22   -14 Fog
15:00 -7.6 -10.0 83 LegendMM 31 15 16.1 96.25   -14 Snow
16:00 -8.2 -10.3 85 LegendMM 31 15 2.8 96.33   -15 Snow
17:00 -8.4 -10.2 87 LegendMM 30 11 3.2 96.37   -14 Snow
18:00 -8.9 -10.7 87 LegendMM 30 13 2.4 96.40   -15 Snow
19:00 -9.8 -11.7 86 LegendMM 32 13 2.8 96.45   -16 Snow
20:00 -9.9 -11.7 87 LegendMM   0 2.0 96.48     Snow
21:00 -10.3 -12.1 87 LegendMM   0 4.8 96.46     Snow
22:00 -10.1 -11.7 88 LegendMM 23 9 11.3 96.47   -15 Snow
23:00 -10.1 -11.6 89 LegendMM 24 8 4.8 96.45   -15 Snow

Notes on Data Quality.

Legend

  • E = Estimated
  • M = Missing
  • NA = Not Available*
  • [empty] = Indicates an unobserved value
Date modified: